Regional Weather Roundup
Issued by NWS

Home | Current Version | Previous Version | Text Only | Print | Product List | Glossary Off
Versions: 1 2 3 4 5 6 7 8 9 10 11 12 13 14 15 16 17 18 19 20 21 22 23 24 25 26 27 28 29 30 31 32 33 34 35 36 37 38 39 40 41 42 43 44 45 46 47 48 49 50

000
ASUS45 KBOU 040407
RWRCO

WEATHER ROUNDUP FOR COLORADO
NATIONAL WEATHER SERVICE DENVER/BOULDER CO
900 PM MST TUE MAR 03 2015

NOTE: "FAIR" INDICATES FEW OR NO CLOUDS BELOW 12000 FEET WITH NO
SIGNIFICANT WEATHER AND/OR OBSTRUCTIONS TO VISIBILITY.

COZ001>005-013-030-031-040500-
...NORTHWEST COLORADO...

CITY           SKY/WX    TMP DP  RH WIND       PRES   REMARKS
CRAIG            N/A     20  16  84 CALM      29.84R
HAYDEN         CLOUDY    19  14  79 SW3       29.82R
MEEKER         LGT SNOW  26  24  92 CALM      29.82R FOG
MOUNT WERNER   NOT AVBL
STEAMBOAT SPGS CLOUDY    21  16  81 CALM      29.80R
WALDEN         MOCLDY    12   7  79 S5        29.74R WCI   4
$$

COZ006>008-011-040500-
...WEST CENTRAL VALLEYS...

CITY           SKY/WX    TMP DP  RH WIND       PRES   REMARKS
GRAND JUNCTION CLOUDY    30  30 100 SW3       29.84R
MONTROSE       FLURRIES  33  28  81 NW18      29.83R WCI  22
EAGLE          SNOW      28  25  86 NW16G23   29.79R VSB 1/2 WCI  17
RIFLE          CLOUDY    31  25  78 W6        29.81R WCI  25
DELTA          CLOUDY    36  31  82 SW8       29.82S
NUCLA          LGT SNOW  32  32 100 NW3       29.88R
$$

COZ017>023-064>068-040500-
...SOUTHWEST COLORADO...

CITY           SKY/WX    TMP DP  RH WIND       PRES   REMARKS
DURANGO        PTCLDY    29  26  89 CALM      29.85R
CORTEZ         PTCLDY    29  28  96 N5        29.85S WCI  24
PAGOSA SPRINGS FLURRIES  20  19  97 CALM      29.84S
TELLURIDE      CLOUDY    23  14  67 CALM      29.82R
WOLF CREEK PAS CLOUDY    10   9  92 MISG      29.79F
$$

COZ009-010-012-014-032>034-037-058>063-040500-
...CENTRAL COLORADO...

CITY           SKY/WX    TMP DP  RH WIND       PRES   REMARKS
ASPEN          LGT SNOW  24  22  91 N9        29.73S FOG     WCI  14
BUENA VISTA    PTCLDY    26  12  55 SW3       29.72S
COPPER MTN     NOT AVBL
BERTHOUD PASS  HVY SNOW   3  -2  78 NW18G24   29.65S VSB<1/4 WCI -17
COTTONWOOD PAS PTCLDY    23   9  54 W15G25    29.70S WCI  10
GUNNISON       PTCLDY    27  12  54 SW12G17   29.78F WCI  16
KREMMLING      CLOUDY    23  10  58 N3        29.78R
LEADVILLE      LGT SNOW  15  13  91 CALM      29.69R FOG
SALIDA         PTCLDY    25  21  85 SE9G17    29.84R WCI  15
SUNLIGHT       HVY SNOW  18  14  86 W5          N/A  VSB 1/4 WCI  11
WILKERSON PASS MOCLDY    12  10  92 SW6       29.71R WCI   3
$$

COZ069>075-040500-
...SAN LUIS VALLEY/SANGRE DE CRISTO MOUNTAINS...

CITY           SKY/WX    TMP DP  RH WIND       PRES   REMARKS
ALAMOSA        CLEAR     26  21  81 SW10      29.79R WCI  16
LA VETA PASS   CLOUDY    21  18  86 MISG      29.77R
SAGUACHE       PTCLDY    28  23  80 N7        29.78R WCI  21
$$

COZ035-036-038>040-040500-
...NORTHERN COLORADO FRONT RANGE...

CITY           SKY/WX    TMP DP  RH WIND       PRES   REMARKS
DENVER INTL AP SNOW      19  16  88 NE7       29.89R VSB 1/2 WCI  10
DMNS CITY PARK   N/A     19  17  92 N6        29.90R WCI  11
AURORA         LGT SNOW  18  17  96 NE6       29.88S VSB 1   WCI   9
FRONT RANGE AP NOT AVBL
ERIE MUNI ARPT LGT SNOW  20  19  93 N7        29.92R WCI  12
BOULDER MUN AP LGT SNOW  19  19 100 NW3       29.90S
CENTENNIAL     CLOUDY    18  15  88 N7        29.86R WCI   9
BROOMFIELD     LGT SNOW  19  18  93 N5          N/A  WCI  13
FORT COLLINS   MOCLDY    16  12  86 NE7       29.95R VSB 1   WCI   6
LONGMONT       LGT SNOW  21  17  85 N8        29.95R WCI  12
$$

COZ041-046-047-076>085-087-088-040500-
...PIKES PEAK/PALMER DIVIDE AND SOUTHERN FOOTHILLS...

CITY           SKY/WX    TMP DP  RH WIND       PRES   REMARKS
COLO. SPRINGS  LGT SNOW  21  20  96 SE14      29.83R VSB 1   WCI   8
A. F. ACADEMY  CLOUDY    20  19  94 S12       29.80R WCI   8
ELLICOTT       NOT AVBL
FALCON         FOG       19  18  97 S9        29.81R VSB 1/2 WCI   8
FORT CARSON    LGT SNOW  22  21  96 SE15      29.81S FOG     WCI   9
LIMON          NOT AVBL
MONUMENT HILL  CLOUDY    18  16  93 SE6       29.79R WCI   9
TRINIDAD       FOG       28  27  96 N6        29.83R VSB 1/4 WCI  22
$$

COZ042>045-048>051-090-091-040500-
...NORTHEAST COLORADO...

CITY           SKY/WX    TMP DP  RH WIND       PRES   REMARKS
GREELEY ARPT   MOCLDY    16   7  67 NE12      29.94R WCI   3
AKRON          LGT SNOW  18  15  88 NE12      29.95R FOG     WCI   5
BURLINGTON     CLOUDY    25  14  63 NE12      29.94S WCI  14
WRAY           LGT SNOW  21  16  81 NE12      30.02R WCI   9
STERLING       LGT SNOW  21  18  86 N7        30.00R WCI  13
HOLYOKE        NOT AVBL
FORT MORGAN    LGT SNOW  20  13  76 NE14      29.96R WCI   6
$$

COZ086-089-092>099-040500-
...SOUTHEAST COLORADO...

CITY           SKY/WX    TMP DP  RH WIND       PRES   REMARKS
PUEBLO         CLOUDY    26  25  96 E10       29.88S FOG     WCI  16
LA JUNTA       CLOUDY    28  22  78 E13       29.90F WCI  17
LAMAR          CLOUDY    29  20  69 E8        29.93R WCI  21
SPRINGFIELD      N/A     24  23  96 NE10      29.91R WCI  14
$$


USA.gov is the U.S. government's official web portal to all federal, state and local government web resources and services.